RYR46RU EBCI-LEAL

Flight info

Callsign RYR46RU
Flight time 2h 1m
Altitude 31000
Route CIV N872 LESDO DCT KOVIN DCT DUCRA/N0458F370 UM728 RESMI UN857 DISAK DCT DIRMO DCT GUERE DCT AGN DCT ANETO DCT POSSY DCT XIMPE DCT RIMES DCT SAURA DCT TATOS DCT PLANA DCT VLC
Aircraft B38M/M-SDE1FGHILORVWXY/HB1

Departure

Time 2026-04-28 15:18
Airport Brussels South Charleroi Airport (EBCI)

Arrival

Time 2026-04-28 17:19
Airport Alicante-Elche Miguel Hernández Airport (LEAL)
Time Latitude Longitude Altitude Speed Heading
2026-04-28 14:54 50.46805 4.46875 623 ft 0 kts 335°
2026-04-28 15:05 50.46804 4.46876 624 ft 0 kts 335°
2026-04-28 15:08 50.46793 4.46885 620 ft 3 kts 319°
2026-04-28 15:08 50.46781 4.46909 621 ft 3 kts 289°
2026-04-28 15:08 50.46777 4.46939 625 ft 3 kts 271°
2026-04-28 15:09 50.46778 4.46970 624 ft 3 kts 260°
2026-04-28 15:09 50.46783 4.47001 627 ft 3 kts 251°
2026-04-28 15:09 50.46788 4.47023 630 ft 1 kts 245°
2026-04-28 15:09 50.46789 4.47024 630 ft 0 kts 245°
2026-04-28 15:13 50.46784 4.47009 630 ft 3 kts 245°
2026-04-28 15:13 50.46768 4.46953 627 ft 8 kts 245°
2026-04-28 15:13 50.46738 4.46852 618 ft 12 kts 245°
2026-04-28 15:13 50.46697 4.46708 621 ft 16 kts 245°
2026-04-28 15:14 50.46653 4.46559 626 ft 13 kts 237°
2026-04-28 15:14 50.46570 4.46556 624 ft 14 kts 167°
2026-04-28 15:14 50.46508 4.46458 622 ft 15 kts 246°
2026-04-28 15:14 50.46456 4.46282 618 ft 22 kts 245°
2026-04-28 15:15 50.46390 4.46053 624 ft 24 kts 245°
2026-04-28 15:15 50.46319 4.45809 618 ft 25 kts 245°
2026-04-28 15:15 50.46244 4.45549 620 ft 27 kts 245°
2026-04-28 15:15 50.46164 4.45275 627 ft 28 kts 245°
2026-04-28 15:16 50.46085 4.45004 622 ft 22 kts 245°
2026-04-28 15:16 50.46019 4.44776 624 ft 24 kts 245°
2026-04-28 15:16 50.45948 4.44533 619 ft 25 kts 245°
2026-04-28 15:16 50.45847 4.44300 626 ft 27 kts 232°
2026-04-28 15:17 50.45753 4.44111 618 ft 19 kts 232°
2026-04-28 15:17 50.45674 4.43977 626 ft 15 kts 194°
2026-04-28 15:17 50.45636 4.44083 623 ft 11 kts 68°
2026-04-28 15:17 50.45667 4.44190 621 ft 13 kts 65°
2026-04-28 15:18 50.45755 4.44490 628 ft 62 kts 66°
2026-04-28 15:18 50.46036 4.45455 617 ft 130 kts 65°
2026-04-28 15:18 50.46457 4.46953 999 ft 159 kts 66°
2026-04-28 15:18 50.46920 4.48580 1921 ft 167 kts 64°
2026-04-28 15:19 50.47531 4.50136 3050 ft 170 kts 47°
2026-04-28 15:19 50.48488 4.51355 3979 ft 179 kts 40°
2026-04-28 15:19 50.49530 4.52476 4842 ft 185 kts 38°
2026-04-28 15:19 50.50506 4.53850 5414 ft 194 kts 58°
2026-04-28 15:20 50.51307 4.55684 5953 ft 214 kts 59°
2026-04-28 15:20 50.52214 4.57690 6502 ft 236 kts 57°
2026-04-28 15:20 50.53351 4.59727 6972 ft 264 kts 40°
2026-04-28 15:20 50.54893 4.60707 7483 ft 286 kts
2026-04-28 15:21 50.56815 4.60191 8633 ft 289 kts 337°
2026-04-28 15:21 50.58407 4.58152 9490 ft 301 kts 305°
2026-04-28 15:21 50.59162 4.55056 10185 ft 308 kts 271°
2026-04-28 15:21 50.58999 4.51749 10975 ft 311 kts 261°
2026-04-28 15:22 50.58839 4.48272 11505 ft 327 kts 265°
2026-04-28 15:22 50.58747 4.44586 11932 ft 346 kts 266°
2026-04-28 15:22 50.58682 4.40726 12493 ft 358 kts 268°
2026-04-28 15:22 50.58622 4.36761 13224 ft 364 kts 268°
2026-04-28 15:23 50.58543 4.32773 14118 ft 366 kts 267°
2026-04-28 15:23 50.58462 4.28750 14824 ft 370 kts 267°
2026-04-28 15:23 50.58376 4.24699 15628 ft 371 kts 266°
2026-04-28 15:23 50.58284 4.20614 16356 ft 376 kts 266°
2026-04-28 15:24 50.58195 4.16490 17104 ft 378 kts 265°
2026-04-28 15:24 50.58100 4.12342 17848 ft 381 kts 265°
2026-04-28 15:24 50.58005 4.08165 18522 ft 384 kts 265°
2026-04-28 15:24 50.57905 4.03949 19156 ft 386 kts 265°
2026-04-28 15:25 50.57802 3.99707 19713 ft 390 kts 265°
2026-04-28 15:25 50.57697 3.95418 20296 ft 394 kts 265°
2026-04-28 15:25 50.57536 3.91097 20858 ft 395 kts 258°
2026-04-28 15:25 50.56725 3.87012 21441 ft 391 kts 240°
2026-04-28 15:26 50.55161 3.83529 21904 ft 391 kts 223°
2026-04-28 15:26 50.53018 3.80925 22484 ft 389 kts 207°
2026-04-28 15:26 50.50637 3.78991 22990 ft 392 kts 204°
2026-04-28 15:26 50.48159 3.77136 23504 ft 396 kts 203°
2026-04-28 15:27 50.45643 3.75338 23997 ft 398 kts 202°
2026-04-28 15:27 50.43095 3.73557 24440 ft 401 kts 202°
2026-04-28 15:27 50.40532 3.71793 24901 ft 402 kts 202°
2026-04-28 15:27 50.37954 3.70035 25336 ft 405 kts 202°
2026-04-28 15:28 50.35362 3.68275 25784 ft 407 kts 202°
2026-04-28 15:28 50.32754 3.66510 26230 ft 409 kts 202°
2026-04-28 15:28 50.30136 3.64739 26654 ft 411 kts 203°
2026-04-28 15:28 50.27504 3.62962 27070 ft 413 kts 203°
2026-04-28 15:29 50.24847 3.61171 27490 ft 416 kts 203°
2026-04-28 15:29 50.22219 3.59400 27876 ft 418 kts 203°
2026-04-28 15:29 50.19537 3.57596 28283 ft 420 kts 204°
2026-04-28 15:29 50.16844 3.55787 28668 ft 423 kts 204°
2026-04-28 15:30 50.14138 3.53971 29051 ft 425 kts 204°
2026-04-28 15:30 50.11412 3.52144 29401 ft 427 kts 204°
2026-04-28 15:30 50.08675 3.50312 29780 ft 429 kts 204°
2026-04-28 15:30 50.05925 3.48474 30148 ft 431 kts 204°
2026-04-28 15:31 50.03163 3.46630 30434 ft 433 kts 204°
2026-04-28 15:31 50.00387 3.44779 30767 ft 434 kts 204°
2026-04-28 15:31 49.97607 3.42928 31091 ft 434 kts 204°
2026-04-28 15:32 49.92087 3.39258 31094 ft 430 kts 204°
2026-04-28 15:32 49.86624 3.35635 31091 ft 429 kts 204°
2026-04-28 15:33 49.81140 3.32007 31084 ft 428 kts 204°
2026-04-28 15:33 49.75673 3.28397 31087 ft 426 kts 205°
2026-04-28 15:34 49.70220 3.24805 31080 ft 425 kts 205°
2026-04-28 15:34 49.64789 3.21236 31079 ft 424 kts 205°
2026-04-28 15:35 49.59373 3.17686 31078 ft 422 kts 205°
2026-04-28 15:35 49.51276 3.12394 31076 ft 420 kts 205°
2026-04-28 15:36 49.46170 3.08165 31078 ft 416 kts 215°
2026-04-28 15:36 49.41337 3.03261 31073 ft 415 kts 215°
2026-04-28 15:37 49.36547 2.98403 31072 ft 414 kts 215°
2026-04-28 15:37 49.32520 2.94326 31065 ft 413 kts 215°
2026-04-28 15:38 49.26949 2.88698 31064 ft 411 kts 215°
2026-04-28 15:38 49.22173 2.83887 31070 ft 411 kts 215°
2026-04-28 15:39 49.17400 2.79089 31075 ft 410 kts 215°
2026-04-28 15:39 49.12665 2.74341 31074 ft 409 kts 215°
2026-04-28 15:40 49.07904 2.69577 31074 ft 408 kts 215°
2026-04-28 15:40 49.03157 2.64839 31077 ft 407 kts 215°
2026-04-28 15:41 48.98418 2.60118 31077 ft 407 kts 215°
2026-04-28 15:41 48.93677 2.55410 31076 ft 406 kts 215°
2026-04-28 15:42 48.88949 2.50723 31046 ft 405 kts 215°
2026-04-28 15:42 48.84227 2.46053 31053 ft 405 kts 215°
2026-04-28 15:43 48.79509 2.41397 31051 ft 404 kts 215°
2026-04-28 15:43 48.74828 2.36788 31049 ft 404 kts 215°
2026-04-28 15:44 48.70110 2.32153 31049 ft 404 kts 215°
2026-04-28 15:44 48.65388 2.27525 31048 ft 404 kts 215°
2026-04-28 15:45 48.60668 2.22909 31050 ft 404 kts 215°
2026-04-28 15:45 48.55708 2.18950 31040 ft 410 kts 198°
2026-04-28 15:46 48.50105 2.17047 31045 ft 413 kts 197°
2026-04-28 15:46 48.44484 2.15197 31040 ft 414 kts 197°
2026-04-28 15:47 48.38857 2.13380 31037 ft 414 kts 197°
2026-04-28 15:47 48.33228 2.11570 31035 ft 413 kts 197°
2026-04-28 15:48 48.27524 2.10317 31025 ft 423 kts 181°
2026-04-28 15:48 48.21637 2.11453 31031 ft 427 kts 179°
2026-04-28 15:49 48.15756 2.12660 31022 ft 426 kts 179°
2026-04-28 15:49 48.09902 2.13226 31019 ft 420 kts 185°
2026-04-28 15:50 48.04057 2.13526 31018 ft 420 kts 184°
2026-04-28 15:50 47.98223 2.13874 31020 ft 419 kts 184°
2026-04-28 15:51 47.92403 2.14227 31016 ft 418 kts 185°
2026-04-28 15:51 47.86592 2.14580 31020 ft 417 kts 185°
2026-04-28 15:52 47.80796 2.14932 31014 ft 417 kts 185°
2026-04-28 15:52 47.75032 2.15280 31014 ft 416 kts 185°
2026-04-28 15:53 47.69234 2.15630 31011 ft 416 kts 185°
2026-04-28 15:53 47.63450 2.15979 31006 ft 416 kts 185°
2026-04-28 15:54 47.57670 2.16326 31002 ft 416 kts 185°
2026-04-28 15:54 47.51925 2.16671 30994 ft 416 kts 185°
2026-04-28 15:55 47.46137 2.17017 30997 ft 416 kts 185°
2026-04-28 15:55 47.40354 2.17362 31003 ft 416 kts 185°
2026-04-28 15:56 47.34564 2.17707 30991 ft 416 kts 185°
2026-04-28 15:56 47.28771 2.18051 30991 ft 417 kts 185°
2026-04-28 15:57 47.22974 2.18395 30988 ft 417 kts 185°
2026-04-28 15:57 47.17161 2.18739 30980 ft 418 kts 184°
2026-04-28 15:58 47.11345 2.19082 30980 ft 419 kts 184°
2026-04-28 15:58 47.06541 2.18926 30977 ft 414 kts 190°
2026-04-28 15:59 47.00794 2.18278 30973 ft 415 kts 191°
2026-04-28 15:59 46.94096 2.17504 30974 ft 415 kts 191°
2026-04-28 16:00 46.89292 2.16939 30550 ft 420 kts 185°
2026-04-28 16:00 46.86358 2.16606 30748 ft 426 kts 185°
2026-04-28 16:00 46.83382 2.16267 30900 ft 431 kts 185°
2026-04-28 16:01 46.77310 2.15570 30975 ft 445 kts 185°
2026-04-28 16:01 46.71027 2.14849 30979 ft 459 kts 185°
2026-04-28 16:02 46.64638 2.14118 30997 ft 461 kts 185°
2026-04-28 16:02 46.58249 2.13389 31000 ft 461 kts 185°
2026-04-28 16:03 46.51864 2.12661 31001 ft 461 kts 185°
2026-04-28 16:03 46.45515 2.11940 31000 ft 461 kts 185°
2026-04-28 16:04 46.39122 2.11215 31000 ft 460 kts 185°
2026-04-28 16:04 46.32724 2.10491 31001 ft 460 kts 185°
2026-04-28 16:05 46.26329 2.09769 31000 ft 461 kts 185°
2026-04-28 16:05 46.19941 2.08993 30995 ft 460 kts 189°
2026-04-28 16:06 46.16884 2.07689 31009 ft 459 kts 202°
2026-04-28 16:06 46.13896 2.06064 30996 ft 460 kts 200°
2026-04-28 16:06 46.07935 2.02844 30996 ft 460 kts 201°
2026-04-28 16:07 46.01950 1.99565 31002 ft 460 kts 201°
2026-04-28 16:08 45.92973 1.94652 31001 ft 460 kts 201°
2026-04-28 16:08 45.86980 1.91382 30999 ft 460 kts 201°
2026-04-28 16:09 45.78002 1.86496 30998 ft 460 kts 201°
2026-04-28 16:10 45.69022 1.81626 30999 ft 460 kts 201°
2026-04-28 16:10 45.60043 1.76774 30999 ft 460 kts 201°
2026-04-28 16:11 45.48097 1.70344 31002 ft 460 kts 201°
2026-04-28 16:12 45.39108 1.65525 30999 ft 460 kts 201°
2026-04-28 16:13 45.30121 1.60723 30999 ft 460 kts 200°
2026-04-28 16:14 45.18128 1.54340 31000 ft 460 kts 200°
2026-04-28 16:15 45.06143 1.47991 31002 ft 460 kts 200°
2026-04-28 16:15 45.00144 1.44823 31001 ft 460 kts 200°
2026-04-28 16:16 44.91183 1.40105 30998 ft 460 kts 200°
2026-04-28 16:17 44.82186 1.35383 30998 ft 460 kts 200°
2026-04-28 16:17 44.76181 1.32240 31002 ft 460 kts 200°
2026-04-28 16:18 44.70183 1.29108 31002 ft 460 kts 200°
2026-04-28 16:18 44.64216 1.25999 30998 ft 460 kts 200°
2026-04-28 16:19 44.58215 1.22880 30997 ft 460 kts 200°
2026-04-28 16:19 44.52204 1.19761 31000 ft 460 kts 200°
2026-04-28 16:20 44.46202 1.16655 31002 ft 460 kts 200°
2026-04-28 16:20 44.40200 1.13555 31000 ft 460 kts 200°
2026-04-28 16:21 44.34192 1.10459 30999 ft 460 kts 200°
2026-04-28 16:21 44.28224 1.07391 31002 ft 460 kts 200°
2026-04-28 16:22 44.22222 1.04311 31002 ft 460 kts 200°
2026-04-28 16:22 44.16214 1.01235 31002 ft 460 kts 200°
2026-04-28 16:23 44.10209 0.98167 31002 ft 460 kts 200°
2026-04-28 16:23 44.04205 0.95106 30999 ft 460 kts 200°
2026-04-28 16:24 43.98196 0.92048 31000 ft 460 kts 200°
2026-04-28 16:24 43.92189 0.88997 31000 ft 460 kts 200°
2026-04-28 16:25 43.86061 0.86547 31006 ft 459 kts 191°
2026-04-28 16:25 43.79808 0.84877 30999 ft 460 kts 191°
2026-04-28 16:26 43.73529 0.83197 30997 ft 460 kts 191°
2026-04-28 16:26 43.67240 0.81519 30999 ft 460 kts 191°
2026-04-28 16:27 43.60947 0.79844 31000 ft 460 kts 191°
2026-04-28 16:28 43.51551 0.77349 31001 ft 460 kts 191°
2026-04-28 16:28 43.45270 0.75686 31002 ft 460 kts 191°
2026-04-28 16:29 43.35836 0.73195 31001 ft 460 kts 191°
2026-04-28 16:30 43.26404 0.70712 31001 ft 460 kts 191°
2026-04-28 16:30 43.20152 0.69070 31001 ft 460 kts 191°
2026-04-28 16:31 43.13865 0.67423 31001 ft 460 kts 191°
2026-04-28 16:31 43.07572 0.65778 31001 ft 460 kts 191°
2026-04-28 16:32 43.01285 0.64137 31000 ft 460 kts 191°
2026-04-28 16:32 42.91855 0.61683 31002 ft 460 kts 191°
2026-04-28 16:33 42.86627 0.60326 30999 ft 460 kts 191°
2026-04-28 16:33 42.79320 0.58433 30999 ft 460 kts 191°
2026-04-28 16:34 42.73031 0.56806 30998 ft 460 kts 191°
2026-04-28 16:34 42.66965 0.54273 31011 ft 458 kts 206°
2026-04-28 16:35 42.61167 0.50611 31002 ft 459 kts 205°
2026-04-28 16:35 42.55384 0.46926 31004 ft 459 kts 205°
2026-04-28 16:36 42.49600 0.43234 31004 ft 459 kts 205°
2026-04-28 16:36 42.43808 0.39543 31003 ft 459 kts 205°
2026-04-28 16:37 42.38023 0.35864 31000 ft 459 kts 205°
2026-04-28 16:38 42.29384 0.30384 31000 ft 459 kts 205°
2026-04-28 16:38 42.23595 0.26721 30997 ft 459 kts 205°
2026-04-28 16:39 42.17804 0.23065 30998 ft 459 kts 205°
2026-04-28 16:39 42.12015 0.19417 30997 ft 459 kts 205°
2026-04-28 16:40 42.06158 0.15994 30988 ft 458 kts 194°
2026-04-28 16:40 41.99836 0.14815 30999 ft 459 kts 187°
2026-04-28 16:41 41.93484 0.13821 30997 ft 460 kts 186°
2026-04-28 16:41 41.87124 0.12866 31001 ft 460 kts 186°
2026-04-28 16:42 41.80765 0.11916 31001 ft 460 kts 186°
2026-04-28 16:42 41.74409 0.10968 30997 ft 459 kts 186°
2026-04-28 16:43 41.68092 0.10028 31001 ft 460 kts 186°
2026-04-28 16:43 41.61694 0.09077 31001 ft 460 kts 186°
2026-04-28 16:44 41.55378 0.08141 31001 ft 459 kts 186°
2026-04-28 16:44 41.49022 0.07201 31001 ft 459 kts 186°
2026-04-28 16:45 41.42664 0.06262 31000 ft 459 kts 186°
2026-04-28 16:45 41.36310 0.05326 31000 ft 459 kts 186°
2026-04-28 16:46 41.29949 0.04390 30997 ft 459 kts 186°
2026-04-28 16:46 41.23595 0.03458 31000 ft 459 kts 186°
2026-04-28 16:47 41.17239 0.02527 31000 ft 459 kts 186°
2026-04-28 16:47 41.10886 0.01598 31001 ft 459 kts 186°
2026-04-28 16:48 41.05600 0.00825 31001 ft 459 kts 186°
2026-04-28 16:48 40.99242 -0.00102 31000 ft 459 kts 186°
2026-04-28 16:49 40.92890 -0.01028 31001 ft 459 kts 186°
2026-04-28 16:49 40.86538 -0.01951 30998 ft 459 kts 186°
2026-04-28 16:50 40.80165 -0.02875 31001 ft 459 kts 186°
2026-04-28 16:50 40.73810 -0.03795 31000 ft 459 kts 186°
2026-04-28 16:51 40.67458 -0.04713 31001 ft 459 kts 186°
2026-04-28 16:51 40.61145 -0.05624 31002 ft 459 kts 186°
2026-04-28 16:52 40.54826 -0.06758 30991 ft 458 kts 196°
2026-04-28 16:52 40.48717 -0.09209 31001 ft 459 kts 197°
2026-04-28 16:53 40.42603 -0.11626 30998 ft 459 kts 197°
2026-04-28 16:53 40.36482 -0.14046 30996 ft 459 kts 197°
2026-04-28 16:54 40.30368 -0.16459 31003 ft 459 kts 197°
2026-04-28 16:54 40.24248 -0.18869 31002 ft 459 kts 197°
2026-04-28 16:55 40.18162 -0.21262 31002 ft 459 kts 197°
2026-04-28 16:55 40.12042 -0.23663 31000 ft 459 kts 197°
2026-04-28 16:56 40.05918 -0.26061 31002 ft 459 kts 197°
2026-04-28 16:56 39.99802 -0.28452 31001 ft 459 kts 197°
2026-04-28 16:57 39.93681 -0.30838 31000 ft 459 kts 197°
2026-04-28 16:57 39.87607 -0.33203 30999 ft 459 kts 197°
2026-04-28 16:58 39.81484 -0.35583 30997 ft 459 kts 197°
2026-04-28 16:58 39.75369 -0.37956 31001 ft 459 kts 197°
2026-04-28 16:58 39.72295 -0.39147 30583 ft 462 kts 197°
2026-04-28 16:59 39.69214 -0.40340 29768 ft 463 kts 197°
2026-04-28 16:59 39.66138 -0.41530 29141 ft 459 kts 197°
2026-04-28 16:59 39.63082 -0.42711 28535 ft 456 kts 197°
2026-04-28 16:59 39.60049 -0.43882 27922 ft 452 kts 197°
2026-04-28 17:00 39.57044 -0.45041 27307 ft 448 kts 197°
2026-04-28 17:00 39.54062 -0.46190 26698 ft 445 kts 197°
2026-04-28 17:00 39.51108 -0.47327 26093 ft 441 kts 197°
2026-04-28 17:00 39.48204 -0.48416 25437 ft 439 kts 195°
2026-04-28 17:01 39.45260 -0.49458 24776 ft 437 kts 195°
2026-04-28 17:01 39.42342 -0.50497 24242 ft 431 kts 195°
2026-04-28 17:01 39.39464 -0.51524 23667 ft 427 kts 195°
2026-04-28 17:01 39.36610 -0.52543 23086 ft 423 kts 195°
2026-04-28 17:02 39.33786 -0.53550 22508 ft 419 kts 195°
2026-04-28 17:02 39.30982 -0.54549 21937 ft 416 kts 195°
2026-04-28 17:02 39.28205 -0.55538 21371 ft 412 kts 195°
2026-04-28 17:02 39.25458 -0.56515 20805 ft 408 kts 195°
2026-04-28 17:03 39.20038 -0.58442 19704 ft 400 kts 195°
2026-04-28 17:03 39.17393 -0.59380 19163 ft 397 kts 195°
2026-04-28 17:03 39.14710 -0.60332 18615 ft 393 kts 195°
2026-04-28 17:04 39.09514 -0.62173 17553 ft 386 kts 195°
2026-04-28 17:04 39.06932 -0.63086 17025 ft 383 kts 195°
2026-04-28 17:05 39.01839 -0.64887 15984 ft 376 kts 195°
2026-04-28 17:05 38.99327 -0.65774 15464 ft 373 kts 195°
2026-04-28 17:05 38.96836 -0.66653 14948 ft 370 kts 195°
2026-04-28 17:06 38.91908 -0.68389 13922 ft 364 kts 195°
2026-04-28 17:06 38.89479 -0.69244 13410 ft 361 kts 195°
2026-04-28 17:06 38.84670 -0.70935 12393 ft 355 kts 195°
2026-04-28 17:07 38.82300 -0.71768 11893 ft 352 kts 195°
2026-04-28 17:07 38.79939 -0.72597 11389 ft 349 kts 195°
2026-04-28 17:07 38.77613 -0.73413 11067 ft 341 kts 195°
2026-04-28 17:07 38.75364 -0.74201 10881 ft 329 kts 195°
2026-04-28 17:08 38.73192 -0.74962 10691 ft 318 kts 195°
2026-04-28 17:08 38.71094 -0.75697 10507 ft 308 kts 195°
2026-04-28 17:08 38.69065 -0.76407 10330 ft 297 kts 195°
2026-04-28 17:08 38.67104 -0.77093 10163 ft 287 kts 195°
2026-04-28 17:09 38.65207 -0.77756 9952 ft 279 kts 195°
2026-04-28 17:09 38.63334 -0.78410 9583 ft 278 kts 195°
2026-04-28 17:09 38.61473 -0.79060 9218 ft 277 kts 195°
2026-04-28 17:09 38.59648 -0.79697 8868 ft 275 kts 195°
2026-04-28 17:10 38.57815 -0.80336 8625 ft 269 kts 195°
2026-04-28 17:10 38.56042 -0.80955 8480 ft 259 kts 195°
2026-04-28 17:10 38.54330 -0.81550 8333 ft 250 kts 194°
2026-04-28 17:10 38.52646 -0.82052 8026 ft 248 kts 193°
2026-04-28 17:11 38.50964 -0.82543 7681 ft 248 kts 193°
2026-04-28 17:11 38.49282 -0.83037 7358 ft 246 kts 193°
2026-04-28 17:11 38.47618 -0.83528 7036 ft 245 kts 193°
2026-04-28 17:11 38.45959 -0.84018 6716 ft 244 kts 193°
2026-04-28 17:12 38.44310 -0.84505 6394 ft 243 kts 193°
2026-04-28 17:12 38.42687 -0.84985 6095 ft 241 kts 193°
2026-04-28 17:12 38.41062 -0.85465 5818 ft 238 kts 193°
2026-04-28 17:12 38.39462 -0.85938 5605 ft 233 kts 193°
2026-04-28 17:13 38.37919 -0.86393 5510 ft 222 kts 193°
2026-04-28 17:13 38.36451 -0.86826 5400 ft 211 kts 193°
2026-04-28 17:13 38.35048 -0.87210 5279 ft 200 kts 186°
2026-04-28 17:13 38.33720 -0.86908 5017 ft 193 kts 153°
2026-04-28 17:14 38.32742 -0.85789 4726 ft 188 kts 123°
2026-04-28 17:14 38.32289 -0.84285 4454 ft 183 kts 105°
2026-04-28 17:14 38.31996 -0.82701 4165 ft 184 kts 103°
2026-04-28 17:14 38.31742 -0.81108 3899 ft 182 kts 101°
2026-04-28 17:15 38.31511 -0.79518 3675 ft 183 kts 101°
2026-04-28 17:15 38.31289 -0.77944 3400 ft 177 kts 101°
2026-04-28 17:15 38.31077 -0.76429 3147 ft 171 kts 101°
2026-04-28 17:15 38.30869 -0.74939 2913 ft 170 kts 101°
2026-04-28 17:16 38.30667 -0.73484 2671 ft 163 kts 101°
2026-04-28 17:16 38.30474 -0.72091 2461 ft 158 kts 101°
2026-04-28 17:16 38.30289 -0.70755 2280 ft 148 kts 101°
2026-04-28 17:16 38.30111 -0.69470 2073 ft 146 kts 101°
2026-04-28 17:17 38.29937 -0.68221 1863 ft 145 kts 101°
2026-04-28 17:17 38.29760 -0.66960 1663 ft 148 kts 101°
2026-04-28 17:17 38.29575 -0.65637 1473 ft 151 kts 100°
2026-04-28 17:17 38.29411 -0.64338 1266 ft 147 kts 100°
2026-04-28 17:18 38.29235 -0.63042 1050 ft 148 kts 101°
2026-04-28 17:18 38.29043 -0.61756 843 ft 148 kts 101°
2026-04-28 17:18 38.28867 -0.60464 657 ft 147 kts 100°
2026-04-28 17:18 38.28687 -0.59182 450 ft 147 kts 102°
2026-04-28 17:19 38.28511 -0.57930 258 ft 143 kts 100°
2026-04-28 17:19 38.28342 -0.56737 128 ft 126 kts 101°
2026-04-28 17:19 38.28230 -0.55915 108 ft 53 kts 100°
2026-04-28 17:19 38.28248 -0.55533 98 ft 32 kts 72°
2026-04-28 17:20 38.28313 -0.55304 94 ft 28 kts 65°
2026-04-28 17:20 38.28376 -0.55178 91 ft 19 kts 54°
2026-04-28 17:20 38.28430 -0.54998 93 ft 12 kts 47°
2026-04-28 17:20 38.28515 -0.54969 90 ft 14 kts 10°
2026-04-28 17:21 38.28623 -0.54945 92 ft 17 kts 10°
2026-04-28 17:21 38.28731 -0.54920 92 ft 9 kts 10°
2026-04-28 17:21 38.28763 -0.54951 91 ft 5 kts 279°
2026-04-28 17:22 38.28769 -0.54995 92 ft 0 kts 280°